Tracking 19246 objects as of 21-Aug-2018
HD Live streaming from Space Station
objects crossing your sky now

NOAA 16 DEB

Track NOAA 16 DEB now!
10-day predictions


NORAD ID: 41281
Int'l Code: 2000-055GH
Perigee: 854.7 km
Apogee: 910.8 km
Inclination: 98.9 °
Period: 102.5 minutes
Semi major axis: 7253 km
RCS: Unknown
Launch date: September 21, 2000
Source: United States (US)
Launch site: AIR FORCE WESTERN TEST RANGE (AFWTR)

Note: This is SATELLITE DEBRIS
aabbcc
Your satellite tracking list
Your tracking list is empty




NASA's NSSDC Master Catalog

Two Line Element Set (TLE):
1 41281U 00055GH  18228.39197132 +.00001118 +00000-0 +71286-3 0  9990
2 41281 098.8994 291.3575 0038648 038.2276 322.1621 14.05273604135686
Source of the keplerian elements: AFSPC